Home   Weather   Bad Oldesloe   Past weeks

Flag for Germany Past Weather in Bad Oldesloe, Schleswig-Holstein, Germany — Yesterday and Last 2 Weeks

Now
34 °F

Passing clouds.


Feels Like: 34 °F
Forecast: 31 / 50 °F
Wind: No wind

Location: Hamburg-Fuhlsbuettel

Current Time: Apr 26, 2017 at 6:41:10 am

Latest Report: Apr 26, 2017 at 6:20 am


Visibility: N/A

Pressure: 29.80 "Hg

Humidity: 93%

Dew Point: 32 °F

Location of Bad OldesloeLocation

Past Weather in Bad Oldesloe — Graph

°F

Bad Oldesloe Temperature Yesterday

Maximum temperature yesterday: 46 °F (at 4:50 pm)
Minimum temperature yesterday: 37 °F (at 1:50 am)
Average temperature yesterday: 41 °F

High & Low Weather Summary for the Past Weeks

 TemperatureHumidityPressure
High55 °F (Apr 21, 12:50 pm)100% (Apr 14, 6:50 am)30.63 "Hg (Apr 14, 6:50 am)
Low25 °F (Apr 19, 5:50 am)40% (Apr 20, 2:50 pm)29.56 "Hg (Apr 25, 7:20 am)
Average43 °F79%30.05 "Hg
* Reported Apr 11 5:20 am — Apr 26 5:50 am, Bad Oldesloe, Weather by CustomWeather, © 2017

Note: Actual official high and low records may vary slightly from our data, if they occured in-between our weather recording intervals... More about our weather records

Advertising

Bad Oldesloe Weather History for the Previous 24 Hours

Scroll right to see more
 ConditionsComfort  
Time TempWeatherWind HumidityBarometerVisibility
5:50 am
Wed, Apr 26
36 °FPassing clouds.3 mph93%29.80 "HgN/A
5:20 am34 °FPassing clouds.6 mph93%29.80 "HgN/A
4:50 am34 °FPassing clouds.6 mph93%29.77 "HgN/A
4:20 am34 °FPassing clouds.3 mph100%29.77 "HgN/A
3:50 am34 °FPassing clouds.5 mph100%29.77 "HgN/A
3:20 am34 °FClear.3 mph93%29.77 "Hg10 mi
2:50 am36 °FClear.5 mph87%29.77 "Hg10 mi
2:20 am37 °FPassing clouds.7 mph87%29.77 "HgN/A
1:50 am37 °FPassing clouds.6 mph87%29.77 "HgN/A
1:20 am37 °FPassing clouds.6 mph87%29.77 "HgN/A
12:50 am37 °FPassing clouds.5 mph81%29.77 "HgN/A
12:20 am39 °FPassing clouds.6 mph81%29.77 "HgN/A
11:50 pm
Tue, Apr 25
41 °FPassing clouds.8 mph76%29.77 "HgN/A
11:20 pm39 °FPassing clouds.7 mph81%29.74 "HgN/A
10:50 pm39 °FClear.6 mph81%29.74 "Hg10 mi
10:20 pm37 °FClear.6 mph81%29.74 "Hg10 mi
9:50 pm39 °FPassing clouds.5 mph75%29.74 "HgN/A
9:20 pm41 °FPassing clouds.3 mph70%29.74 "HgN/A
8:50 pm43 °FPassing clouds.7 mph61%29.74 "HgN/A
8:20 pm43 °FPassing clouds.6 mph61%29.74 "HgN/A
7:50 pm45 °FPassing clouds.9 mph57%29.74 "HgN/A
7:20 pm45 °FPassing clouds.14 mph53%29.74 "HgN/A
6:50 pm45 °FScattered clouds.12 mph53%29.71 "HgN/A
6:20 pm45 °FScattered clouds.16 mph53%29.71 "HgN/A
5:50 pm46 °FScattered clouds.17 mph46%29.71 "HgN/A
5:20 pm46 °FScattered clouds.14 mph53%29.71 "HgN/A
4:50 pm46 °FScattered clouds.16 mph50%29.71 "HgN/A
4:20 pm45 °FScattered clouds.14 mph53%29.68 "HgN/A
3:50 pm45 °FScattered clouds.15 mph61%29.68 "HgN/A
3:20 pm45 °FScattered clouds.17 mph66%29.68 "HgN/A
2:50 pm45 °FScattered clouds.18 mph76%29.65 "HgN/A
2:20 pm43 °FPartly sunny.17 mph76%29.65 "HgN/A
1:50 pm43 °FPartly sunny.12 mph81%29.62 "HgN/A
1:20 pm43 °FPartly sunny.16 mph76%29.59 "HgN/A
12:50 pm45 °FPartly sunny.9 mph76%29.59 "HgN/A
12:20 pm41 °FSnow flurries. Passing clouds.12 mph87%29.59 "HgN/A
11:50 am41 °FPassing clouds.6 mph87%29.59 "HgN/A
11:20 am39 °FSprinkles. Partly sunny.18 mph87%29.59 "HgN/A
10:50 am43 °FPartly sunny.16 mph76%29.56 "HgN/A
10:20 am43 °FPartly sunny.12 mph87%29.56 "HgN/A
9:50 am41 °FBroken clouds.9 mph87%29.56 "HgN/A
9:20 am39 °FScattered clouds.5 mph93%29.56 "HgN/A
8:50 am39 °FLight rain. Partly sunny.7 mph93%29.56 "HgN/A
8:20 am37 °FRain. Low clouds.9 mph100%29.56 "Hg5 mi
7:50 am39 °FLight rain. Partly sunny.9 mph93%29.56 "HgN/A
7:20 am37 °FPartly sunny.8 mph100%29.56 "HgN/A
6:50 am37 °FPartly sunny.7 mph93%29.59 "HgN/A
6:20 am37 °FPartly sunny.6 mph93%29.59 "HgN/A
Weather by CustomWeather, © 2017

See weather overviewHow to use our weather pages